Terminal Aerodrome Forecast
Issued by NWS

Home | Current Version | Previous Version | Graphics & Text | Print | Product List | Glossary On
Versions: 1 2 3 4 5 6 7 8 9 10 11 12 13 14 15 16 17 18 19 20
382
FTUS43 KGRB 261712 AAC
TAFCWA
TAF AMD
KCWA 261712Z 2617/2712 19008G15KT P6SM SCT012
     FM261900 22007G14KT P6SM SCT025
     FM270100 VRB03KT P6SM SCT040 BKN250
     FM270600 VRB03KT 4SM BR SCT008 BKN250
      TEMPO 2708/2712 1 1/2SM BR BKN005=

USA.gov is the U.S. government's official web portal to all federal, state and local government web resources and services.